Time,TemperatureF,DewpointF,PressureIn,WindDirection,WindDirectionDegrees,WindSpeedMPH,WindSpeedGustMPH,Humidity,HourlyPrecipIn,Conditions,Clouds,dailyrainin,SoftwareType,DateUTC
2013-02-12 00:01:00,68.0,62.0,30.19,NNW,335,1.0,-999.0,81,-99.99,,,-99.99,,2013-02-12 10:01:00,
2013-02-12 00:11:00,68.0,62.0,30.19,NE,35,1.0,-999.0,81,-99.99,,,-99.99,,2013-02-12 10:11:00,
2013-02-12 00:21:00,68.0,62.0,30.19,NE,35,1.0,-999.0,81,-99.99,,,-99.99,,2013-02-12 10:21:00,
2013-02-12 00:31:00,68.0,62.0,30.19,NE,49,1.0,-999.0,80,-99.99,,,-99.99,,2013-02-12 10:31:00,
2013-02-12 00:43:00,68.0,62.0,30.19,NE,49,1.0,-999.0,80,-99.99,,,-99.99,,2013-02-12 10:43:00,
2013-02-12 00:51:00,67.0,61.0,30.18,North,360,0.0,-999.0,81,-99.99,,,-99.99,,2013-02-12 10:51:00,
2013-02-12 01:01:00,67.0,62.0,30.18,WSW,257,0.0,-999.0,84,-99.99,,,-99.99,,2013-02-12 11:01:00,
2013-02-12 01:11:00,67.0,62.0,30.18,WSW,257,0.0,-999.0,84,-99.99,,,-99.99,,2013-02-12 11:11:00,
2013-02-12 01:21:00,66.0,61.0,30.17,WSW,257,0.0,-999.0,85,-99.99,,,-99.99,,2013-02-12 11:21:00,
2013-02-12 01:31:00,66.0,62.0,30.17,WSW,257,0.0,-999.0,87,-99.99,,,-99.99,,2013-02-12 11:31:00,
2013-02-12 01:41:00,66.0,62.0,30.17,WSW,257,0.0,-999.0,87,-99.99,,,-99.99,,2013-02-12 11:41:00,
2013-02-12 01:52:00,65.0,61.0,30.16,WSW,258,0.0,-999.0,87,-99.99,,,-99.99,,2013-02-12 11:52:00,
2013-02-12 02:01:00,65.0,61.0,30.16,NNW,331,0.0,-999.0,87,-99.99,,,-99.99,,2013-02-12 12:01:00,
2013-02-12 02:11:00,65.0,61.0,30.16,NNW,331,0.0,-999.0,87,-99.99,,,-99.99,,2013-02-12 12:11:00,
2013-02-12 02:21:00,64.0,60.0,30.16,NNW,331,0.0,-999.0,87,-99.99,,,-99.99,,2013-02-12 12:21:00,
2013-02-12 02:32:00,64.0,60.0,30.15,NNW,331,0.0,-999.0,88,-99.99,,,-99.99,,2013-02-12 12:32:00,
2013-02-12 02:42:00,64.0,60.0,30.15,NNW,331,0.0,-999.0,88,-99.99,,,-99.99,,2013-02-12 12:42:00,
2013-02-12 02:52:00,64.0,60.0,30.15,NNW,331,0.0,-999.0,88,-99.99,,,-99.99,,2013-02-12 12:52:00,
2013-02-12 03:01:00,64.0,60.0,30.15,NNW,331,0.0,-999.0,88,-99.99,,,-99.99,,2013-02-12 13:01:00,
2013-02-12 03:11:00,64.0,61.0,30.15,NNW,331,0.0,-999.0,89,-99.99,,,-99.99,,2013-02-12 13:11:00,
2013-02-12 03:21:00,64.0,61.0,30.15,NNW,331,0.0,-999.0,89,-99.99,,,-99.99,,2013-02-12 13:21:00,
2013-02-12 03:31:00,64.0,61.0,30.15,NNW,338,0.0,-999.0,89,-99.99,,,-99.99,,2013-02-12 13:31:00,
2013-02-12 03:42:00,64.0,61.0,30.15,NNW,338,0.0,-999.0,89,-99.99,,,-99.99,,2013-02-12 13:42:00,
2013-02-12 03:51:00,64.0,61.0,30.14,WNW,290,0.0,-999.0,90,-99.99,,,-99.99,,2013-02-12 13:51:00,
2013-02-12 04:01:00,64.0,61.0,30.15,WNW,290,0.0,-999.0,90,-99.99,,,-99.99,,2013-02-12 14:01:00,
2013-02-12 04:11:00,64.0,61.0,30.15,WNW,290,0.0,-999.0,90,-99.99,,,-99.99,,2013-02-12 14:11:00,
2013-02-12 04:21:00,64.0,61.0,30.15,WNW,290,0.0,-999.0,90,-99.99,,,-99.99,,2013-02-12 14:21:00,
2013-02-12 04:31:00,64.0,61.0,30.15,West,279,0.0,-999.0,90,-99.99,,,-99.99,,2013-02-12 14:31:00,
2013-02-12 04:41:00,64.0,61.0,30.15,West,279,0.0,-999.0,90,-99.99,,,-99.99,,2013-02-12 14:41:00,
2013-02-12 04:52:00,64.0,61.0,30.15,NNW,335,1.0,-999.0,89,-99.99,,,-99.99,,2013-02-12 14:52:00,
2013-02-12 05:01:00,66.0,61.0,30.15,NNW,327,0.0,-999.0,85,-99.99,,,-99.99,,2013-02-12 15:01:00,
2013-02-12 05:11:00,66.0,61.0,30.15,NNE,26,1.0,-999.0,84,-99.99,,,-99.99,,2013-02-12 15:11:00,
2013-02-12 05:21:00,66.0,61.0,30.15,NNE,26,1.0,-999.0,84,-99.99,,,-99.99,,2013-02-12 15:21:00,
2013-02-12 05:32:00,66.0,61.0,30.15,NNE,26,1.0,-999.0,84,-99.99,,,-99.99,,2013-02-12 15:32:00,
2013-02-12 05:42:00,66.0,61.0,30.15,NNE,26,1.0,-999.0,84,-99.99,,,-99.99,,2013-02-12 15:42:00,
2013-02-12 05:52:00,66.0,60.0,30.15,NW,324,1.0,-999.0,82,-99.99,,,-99.99,,2013-02-12 15:52:00,
2013-02-12 06:01:00,67.0,61.0,30.16,NW,323,0.0,-999.0,82,-99.99,,,-99.99,,2013-02-12 16:01:00,
2013-02-12 06:11:00,67.0,61.0,30.16,NW,323,0.0,-999.0,82,-99.99,,,-99.99,,2013-02-12 16:11:00,
2013-02-12 06:22:00,66.0,61.0,30.16,NW,323,0.0,-999.0,84,-99.99,,,-99.99,,2013-02-12 16:22:00,
2013-02-12 06:31:00,65.0,61.0,30.16,NW,323,0.0,-999.0,86,-99.99,,,-99.99,,2013-02-12 16:31:00,
2013-02-12 06:41:00,65.0,61.0,30.16,NW,323,0.0,-999.0,86,-99.99,,,-99.99,,2013-02-12 16:41:00,
2013-02-12 06:51:00,65.0,61.0,30.16,NW,323,0.0,-999.0,87,-99.99,,,-99.99,,2013-02-12 16:51:00,
2013-02-12 07:01:00,64.0,60.0,30.17,NW,323,0.0,-999.0,88,-99.99,,,-99.99,,2013-02-12 17:01:00,
2013-02-12 07:11:00,64.0,60.0,30.17,NW,323,0.0,-999.0,88,-99.99,,,-99.99,,2013-02-12 17:11:00,
2013-02-12 07:21:00,64.0,60.0,30.17,NW,323,0.0,-999.0,88,-99.99,,,-99.99,,2013-02-12 17:21:00,
2013-02-12 07:31:00,64.0,61.0,30.18,NW,323,0.0,-999.0,89,-99.99,,,-99.99,,2013-02-12 17:31:00,
2013-02-12 07:41:00,64.0,61.0,30.18,NW,323,0.0,-999.0,89,-99.99,,,-99.99,,2013-02-12 17:41:00,
2013-02-12 07:52:00,64.0,61.0,30.18,NW,323,0.0,-999.0,89,-99.99,,,-99.99,,2013-02-12 17:52:00,
2013-02-12 08:01:00,64.0,61.0,30.18,NW,323,0.0,-999.0,89,-99.99,,,-99.99,,2013-02-12 18:01:00,
2013-02-12 08:11:00,64.0,60.0,30.18,NW,323,0.0,-999.0,88,-99.99,,,-99.99,,2013-02-12 18:11:00,
2013-02-12 08:22:00,64.0,60.0,30.18,NW,323,0.0,-999.0,88,-99.99,,,-99.99,,2013-02-12 18:22:00,
2013-02-12 08:31:00,65.0,61.0,30.19,NW,323,0.0,-999.0,87,-99.99,,,-99.99,,2013-02-12 18:31:00,
2013-02-12 08:41:00,65.0,61.0,30.19,NW,323,0.0,-999.0,87,-99.99,,,-99.99,,2013-02-12 18:41:00,
2013-02-12 08:51:00,66.0,61.0,30.19,NW,321,0.0,-999.0,84,-99.99,,,-99.99,,2013-02-12 18:51:00,
2013-02-12 09:01:00,69.0,61.0,30.19,NNW,340,2.0,-999.0,77,-99.99,,,-99.99,,2013-02-12 19:01:00,
2013-02-12 09:11:00,69.0,61.0,30.19,NNW,340,2.0,-999.0,77,-99.99,,,-99.99,,2013-02-12 19:11:00,
2013-02-12 09:21:00,71.0,60.0,30.19,NNE,31,3.0,-999.0,69,-99.99,,,-99.99,,2013-02-12 19:21:00,
2013-02-12 09:31:00,71.0,60.0,30.19,NNE,17,3.0,-999.0,69,-99.99,,,-99.99,,2013-02-12 19:31:00,
2013-02-12 09:41:00,71.0,59.0,30.19,NNW,342,3.0,-999.0,65,-99.99,,,-99.99,,2013-02-12 19:41:00,
2013-02-12 09:51:00,71.0,59.0,30.19,NNW,342,3.0,-999.0,65,-99.99,,,-99.99,,2013-02-12 19:51:00,
2013-02-12 10:01:00,72.0,60.0,30.19,North,350,3.0,-999.0,65,-99.99,,,-99.99,,2013-02-12 20:01:00,
2013-02-12 10:11:00,72.0,60.0,30.19,North,350,3.0,-999.0,65,-99.99,,,-99.99,,2013-02-12 20:11:00,
2013-02-12 10:21:00,72.0,60.0,30.19,North,350,3.0,-999.0,65,-99.99,,,-99.99,,2013-02-12 20:21:00,
2013-02-12 10:31:00,73.0,60.0,30.19,NNW,330,2.0,-999.0,64,-99.99,,,-99.99,,2013-02-12 20:31:00,
2013-02-12 10:42:00,73.0,60.0,30.19,NNW,330,2.0,-999.0,64,-99.99,,,-99.99,,2013-02-12 20:42:00,
2013-02-12 10:52:00,73.0,60.0,30.18,ENE,61,3.0,-999.0,63,-99.99,,,-99.99,,2013-02-12 20:52:00,
2013-02-12 11:01:00,73.0,61.0,30.18,North,5,4.0,-999.0,66,-99.99,,,-99.99,,2013-02-12 21:01:00,
2013-02-12 11:11:00,73.0,61.0,30.18,North,5,4.0,-999.0,66,-99.99,,,-99.99,,2013-02-12 21:11:00,
2013-02-12 11:21:00,73.0,60.0,30.18,NNE,17,4.0,-999.0,64,-99.99,,,-99.99,,2013-02-12 21:21:00,
2013-02-12 11:31:00,73.0,60.0,30.17,North,5,2.0,-999.0,64,-99.99,,,-99.99,,2013-02-12 21:31:00,
2013-02-12 11:41:00,72.0,61.0,30.16,NNE,28,5.0,-999.0,68,-99.99,,,-99.99,,2013-02-12 21:41:00,
2013-02-12 11:51:00,72.0,61.0,30.16,NNE,28,5.0,-999.0,68,-99.99,,,-99.99,,2013-02-12 21:51:00,
2013-02-12 12:01:00,73.0,61.0,30.16,WNW,296,4.0,-999.0,67,-99.99,,,-99.99,,2013-02-12 22:01:00,
2013-02-12 12:12:00,73.0,61.0,30.16,WNW,296,4.0,-999.0,67,-99.99,,,-99.99,,2013-02-12 22:12:00,
2013-02-12 12:21:00,73.0,61.0,30.16,NNE,19,6.0,-999.0,65,-99.99,,,-99.99,,2013-02-12 22:21:00,
2013-02-12 12:31:00,73.0,63.0,30.15,NNW,333,5.0,-999.0,70,-99.99,,,-99.99,,2013-02-12 22:31:00,
2013-02-12 12:41:00,73.0,63.0,30.15,NNW,333,5.0,-999.0,70,-99.99,,,-99.99,,2013-02-12 22:41:00,
2013-02-12 12:51:00,73.0,63.0,30.15,North,355,5.0,-999.0,70,-99.99,,,-99.99,,2013-02-12 22:51:00,
2013-02-12 13:01:00,72.0,60.0,30.14,North,5,6.0,-999.0,67,-99.99,,,-99.99,,2013-02-12 23:01:00,
2013-02-12 13:11:00,73.0,62.0,30.14,NNW,348,4.0,-999.0,69,-99.99,,,-99.99,,2013-02-12 23:11:00,
2013-02-12 13:21:00,73.0,62.0,30.14,NNW,348,4.0,-999.0,69,-99.99,,,-99.99,,2013-02-12 23:21:00,
2013-02-12 13:31:00,73.0,61.0,30.13,NNW,338,4.0,-999.0,67,-99.99,,,-99.99,,2013-02-12 23:31:00,
2013-02-12 13:41:00,73.0,61.0,30.13,NNW,338,4.0,-999.0,67,-99.99,,,-99.99,,2013-02-12 23:41:00,
2013-02-12 13:52:00,72.0,62.0,30.12,NNE,31,4.0,-999.0,71,-99.99,,,-99.99,,2013-02-12 23:52:00,
2013-02-12 14:02:00,72.0,60.0,30.12,WSW,255,5.0,-999.0,67,-99.99,,,-99.99,,2013-02-13 00:02:00,
2013-02-12 14:11:00,72.0,60.0,30.12,WSW,255,5.0,-999.0,67,-99.99,,,-99.99,,2013-02-13 00:11:00,
2013-02-12 14:21:00,73.0,62.0,30.11,North,9,2.0,-999.0,68,-99.99,,,-99.99,,2013-02-13 00:21:00,
2013-02-12 14:32:00,73.0,61.0,30.11,East,79,4.0,-999.0,67,-99.99,,,-99.99,,2013-02-13 00:32:00,
2013-02-12 14:42:00,73.0,61.0,30.11,East,79,4.0,-999.0,67,-99.99,,,-99.99,,2013-02-13 00:42:00,
2013-02-12 14:51:00,74.0,61.0,30.10,NE,41,4.0,-999.0,64,-99.99,,,-99.99,,2013-02-13 00:51:00,
2013-02-12 15:01:00,72.0,62.0,30.10,NE,34,6.0,-999.0,72,-99.99,,,-99.99,,2013-02-13 01:01:00,
2013-02-12 15:11:00,72.0,62.0,30.10,NE,34,6.0,-999.0,72,-99.99,,,-99.99,,2013-02-13 01:11:00,
2013-02-12 15:21:00,67.0,62.0,30.10,NNW,336,4.0,-999.0,84,-99.99,,,-99.99,,2013-02-13 01:21:00,
2013-02-12 15:31:00,66.0,62.0,30.09,NW,325,1.0,-999.0,86,-99.99,,,-99.99,,2013-02-13 01:31:00,
2013-02-12 15:42:00,66.0,62.0,30.09,NW,325,1.0,-999.0,86,-99.99,,,-99.99,,2013-02-13 01:42:00,
2013-02-12 15:51:00,66.0,62.0,30.09,NW,325,1.0,-999.0,86,-99.99,,,-99.99,,2013-02-13 01:51:00,
2013-02-12 16:01:00,70.0,63.0,30.09,ENE,59,3.0,-999.0,78,-99.99,,,-99.99,,2013-02-13 02:01:00,
2013-02-12 16:11:00,70.0,63.0,30.09,ENE,59,3.0,-999.0,78,-99.99,,,-99.99,,2013-02-13 02:11:00,
2013-02-12 16:21:00,70.0,63.0,30.09,WNW,296,2.0,-999.0,78,-99.99,,,-99.99,,2013-02-13 02:21:00,
2013-02-12 16:31:00,68.0,62.0,30.09,NE,43,3.0,-999.0,82,-99.99,,,-99.99,,2013-02-13 02:31:00,
2013-02-12 16:41:00,68.0,62.0,30.09,NE,43,3.0,-999.0,82,-99.99,,,-99.99,,2013-02-13 02:41:00,
2013-02-12 16:51:00,67.0,63.0,30.10,NW,311,1.0,-999.0,88,-99.99,,,-99.99,,2013-02-13 02:51:00,
2013-02-12 17:01:00,67.0,63.0,30.10,NNE,29,0.0,-999.0,88,-99.99,,,-99.99,,2013-02-13 03:01:00,
2013-02-12 17:11:00,67.0,63.0,30.10,NNE,28,0.0,-999.0,88,-99.99,,,-99.99,,2013-02-13 03:11:00,
2013-02-12 17:21:00,67.0,63.0,30.10,NNE,28,0.0,-999.0,88,-99.99,,,-99.99,,2013-02-13 03:21:00,
2013-02-12 17:32:00,67.0,62.0,30.10,NNE,19,1.0,-999.0,85,-99.99,,,-99.99,,2013-02-13 03:32:00,
2013-02-12 17:41:00,67.0,62.0,30.10,NNE,19,1.0,-999.0,85,-99.99,,,-99.99,,2013-02-13 03:41:00,
2013-02-12 17:51:00,67.0,62.0,30.10,NNE,24,0.0,-999.0,84,-99.99,,,-99.99,,2013-02-13 03:51:00,
2013-02-12 18:01:00,67.0,62.0,30.10,NNW,337,0.0,-999.0,85,-99.99,,,-99.99,,2013-02-13 04:01:00,
2013-02-12 18:11:00,67.0,62.0,30.10,NNW,337,0.0,-999.0,85,-99.99,,,-99.99,,2013-02-13 04:11:00,
2013-02-12 18:21:00,66.0,62.0,30.11,NW,306,1.0,-999.0,86,-99.99,,,-99.99,,2013-02-13 04:21:00,
2013-02-12 18:31:00,66.0,62.0,30.11,NW,306,1.0,-999.0,86,-99.99,,,-99.99,,2013-02-13 04:31:00,
2013-02-12 18:41:00,66.0,62.0,30.11,NW,306,1.0,-999.0,86,-99.99,,,-99.99,,2013-02-13 04:41:00,
2013-02-12 18:51:00,65.0,62.0,30.12,NNW,338,0.0,-999.0,89,-99.99,,,-99.99,,2013-02-13 04:51:00,
2013-02-12 19:01:00,64.0,61.0,30.12,NNW,335,0.0,-999.0,90,-99.99,,,-99.99,,2013-02-13 05:01:00,
2013-02-12 19:11:00,64.0,61.0,30.12,NNW,335,0.0,-999.0,91,-99.99,,,-99.99,,2013-02-13 05:11:00,
2013-02-12 19:22:00,64.0,61.0,30.12,NNW,335,0.0,-999.0,91,-99.99,,,-99.99,,2013-02-13 05:22:00,
2013-02-12 19:31:00,64.0,61.0,30.13,NNW,335,0.0,-999.0,91,-99.99,,,-99.99,,2013-02-13 05:31:00,
2013-02-12 19:41:00,64.0,61.0,30.13,NNW,335,0.0,-999.0,91,-99.99,,,-99.99,,2013-02-13 05:41:00,
2013-02-12 19:52:00,64.0,61.0,30.13,NNW,335,0.0,-999.0,91,-99.99,,,-99.99,,2013-02-13 05:52:00,
2013-02-12 20:02:00,64.0,62.0,30.14,NNW,335,0.0,-999.0,92,-99.99,,,-99.99,,2013-02-13 06:02:00,
2013-02-12 20:11:00,64.0,62.0,30.14,NNW,335,0.0,-999.0,92,-99.99,,,-99.99,,2013-02-13 06:11:00,
2013-02-12 20:21:00,64.0,62.0,30.14,NNW,335,0.0,-999.0,92,-99.99,,,-99.99,,2013-02-13 06:21:00,
2013-02-12 20:31:00,63.0,61.0,30.14,NNW,335,0.0,-999.0,92,-99.99,,,-99.99,,2013-02-13 06:31:00,
2013-02-12 20:41:00,63.0,61.0,30.14,NNW,335,0.0,-999.0,92,-99.99,,,-99.99,,2013-02-13 06:41:00,
2013-02-12 20:51:00,63.0,61.0,30.14,NNW,335,0.0,-999.0,92,-99.99,,,-99.99,,2013-02-13 06:51:00,
2013-02-12 21:02:00,63.0,61.0,30.14,NNW,335,0.0,-999.0,92,-99.99,,,-99.99,,2013-02-13 07:02:00,
2013-02-12 21:11:00,63.0,61.0,30.15,NNW,335,0.0,-999.0,92,-99.99,,,-99.99,,2013-02-13 07:11:00,
2013-02-12 21:21:00,63.0,61.0,30.15,NNW,335,0.0,-999.0,92,-99.99,,,-99.99,,2013-02-13 07:21:00,
2013-02-12 21:31:00,63.0,61.0,30.15,NNW,335,0.0,-999.0,92,-99.99,,,-99.99,,2013-02-13 07:31:00,
2013-02-12 21:41:00,63.0,61.0,30.15,NNW,335,0.0,-999.0,92,-99.99,,,-99.99,,2013-02-13 07:41:00,
2013-02-12 21:51:00,63.0,61.0,30.15,NNW,335,0.0,-999.0,92,-99.99,,,-99.99,,2013-02-13 07:51:00,
2013-02-12 22:01:00,63.0,61.0,30.15,NNW,335,0.0,-999.0,92,-99.99,,,-99.99,,2013-02-13 08:01:00,
2013-02-12 22:11:00,63.0,61.0,30.15,NNW,335,0.0,-999.0,92,-99.99,,,-99.99,,2013-02-13 08:11:00,
2013-02-12 22:21:00,63.0,61.0,30.16,WSW,250,0.0,-999.0,92,-99.99,,,-99.99,,2013-02-13 08:21:00,
2013-02-12 22:31:00,63.0,61.0,30.15,WSW,250,0.0,-999.0,93,-99.99,,,-99.99,,2013-02-13 08:31:00,
2013-02-12 22:42:00,63.0,61.0,30.15,WSW,250,0.0,-999.0,93,-99.99,,,-99.99,,2013-02-13 08:42:00,
2013-02-12 22:52:00,63.0,61.0,30.15,WSW,250,0.0,-999.0,92,-99.99,,,-99.99,,2013-02-13 08:52:00,
2013-02-12 23:01:00,63.0,61.0,30.15,WSW,250,0.0,-999.0,92,-99.99,,,-99.99,,2013-02-13 09:01:00,
2013-02-12 23:11:00,63.0,61.0,30.15,WSW,250,0.0,-999.0,92,-99.99,,,-99.99,,2013-02-13 09:11:00,
2013-02-12 23:21:00,63.0,61.0,30.15,WSW,250,0.0,-999.0,93,-99.99,,,-99.99,,2013-02-13 09:21:00,
2013-02-12 23:31:00,63.0,61.0,30.15,WSW,250,0.0,-999.0,93,-99.99,,,-99.99,,2013-02-13 09:31:00,
2013-02-12 23:41:00,63.0,61.0,30.15,WSW,250,0.0,-999.0,93,-99.99,,,-99.99,,2013-02-13 09:41:00,
2013-02-12 23:51:00,63.0,61.0,30.15,WSW,250,0.0,-999.0,93,-99.99,,,-99.99,,2013-02-13 09:51:00,